Regional Weather Roundup
Issued by NWS

Home | Current Version | Previous Version | Graphics & Text | Print | Product List | Glossary On
Versions: 1 2 3 4 5 6 7 8 9 10 11 12 13 14 15 16 17 18 19 20 21 22 23 24 25 26 27 28 29 30 31 32 33 34 35 36 37 38 39 40 41 42 43 44 45 46 47 48 49 50
000
ASUS44 KMEG 050410
RWRTN
TENNESSEE HOURLY STATE WEATHER ROUNDUP
NATIONAL WEATHER SERVICE MEMPHIS TN
1000 PM CST WED MAR 04 2015

TNZ002-004-019-021-049-052-054-088>092-050500-
WEST TENNESSEE

CITY           SKY/WX    TMP DP  RH WIND       PRES   REMARKS
MEMPHIS INTL   FRZ RAIN  28  25  88 N16G30    30.18S FOG     WCI  16
NWS MEMPHIS      N/A     27 N/A N/A MISG        N/A
JACKSON        CLOUDY    27  23  85 N23       30.19R FOG     WCI  12
DYERSBURG      CLOUDY    21   9  58 N21       30.28R WCI   6
UNION CITY     CLOUDY    18  18 100 N18       30.25S WCI   2
PARIS          CLOUDY    18  16  93 N16       30.24R WCI   3
LEXINGTON      CLOUDY    27  27 100 N10       30.13F WCI  17
SAVANNAH       CLOUDY    30  30 100 N17       30.12S WCI  18
$$

TNZ008-025-027-028-033-062-065-066-050500-
NORTH MIDDLE TENNESSEE

CITY           SKY/WX    TMP DP  RH WIND       PRES   REMARKS
NASHVILLE      FRZ DRZL  31  29  92 N16G24    30.13R WCI  20
CLARKSVILLE    FLURRIES  23  19  85 N20G26    30.23R WCI   8
SMYRNA         LGT RAIN  32  31  96 N16       30.13R WCI  21
COOKEVILLE     CLOUDY    34  34 100 NE10      30.03F WCI  26
CROSSVILLE     CLOUDY    36  33  89 N12G18    30.01R WCI  28
$$

TNZ061-075-076-078-094-096-097-050500-
SOUTH MIDDLE TENNESSEE

CITY           SKY/WX    TMP DP  RH WIND       PRES   REMARKS
FAYETTEVILLE   CLOUDY    34  34 100 N14         N/A  WCI  24
TULLAHOMA      CLOUDY    36  36 100 N12       30.03R WCI  27
WINCHESTER     CLOUDY    37  36  93 N14       30.01F WCI  29
MCMINNVILLE    CLOUDY    36  36 100 N13       30.04S WCI  27
COLUMBIA       CLOUDY   N/A N/A N/A N9        30.09R
SHELBYVILLE    CLOUDY    36  34  93 N13       30.08R WCI  27
$$

TNZ017-018-042-046-047-050500-
NORTHEAST TENNESSEE

CITY           SKY/WX    TMP DP  RH WIND       PRES   REMARKS
TRI CITIES     CLOUDY    48  43  82 N10       29.94R
ELIZABETHTON   CLOUDY    52  46  82 CALM      29.90F
$$

TNZ012-013-036-069-073-074-050500-
CENTRAL EAST TENNESSEE

CITY           SKY/WX    TMP DP  RH WIND       PRES   REMARKS
KNOXVILLE      RAIN      42  40  92 N9        30.01R FOG
OAK RIDGE      LGT RAIN  44  42  93 VRB3      30.01R
GATLINBURG     CLOUDY    45  43  93 VRB3      29.98R
MORRISTOWN     CLOUDY    45  45 100 N8        29.98R
$$

TNZ083-085-099-050500-
SOUTHEAST TENNESSEE

CITY           SKY/WX    TMP DP  RH WIND       PRES   REMARKS
CHATTANOOGA    CLOUDY    50  44  80 N8        29.98R
$$

SKY/WX REPORTED AS FAIR MEANS FEW OR NO CLOUDS BELOW
12 THOUSAND FEET.




USA.gov is the U.S. government's official web portal to all federal, state and local government web resources and services.